This is the latest recevied weather packets stored in our database for station/object HOWARD. If no packets are shown the sender has not sent any weather packets the latest 10 day(s).
| Time | Temp. | Humidity | Pressure | Rain* | Wind** | Luminosity | Snow |
|---|---|---|---|---|---|---|---|
| 1777568501 | 5.56° C | 58% | 1016.2 hPa | 0 mm | - | - | - |
| 1777567901 | 5° C | 55% | 1016.2 hPa | 0 mm | - | - | - |
| 1777567301 | 5° C | 58% | 1016.1 hPa | 0 mm | - | - | - |
| 1777566701 | 5° C | 54% | 1016 hPa | 0 mm | - | - | - |
| 1777566132 | 5.56° C | 48% | 1016.2 hPa | 0 mm | - | - | - |
| 1777566101 | 5.56° C | 48% | 1016.2 hPa | 0 mm | - | - | - |
| 1777565501 | 5.56° C | 44% | 1016 hPa | 0 mm | - | - | - |
| 1777564902 | 5° C | 48% | 1016.1 hPa | 0 mm | - | - | - |
| 1777564301 | 3.89° C | 46% | 1016.3 hPa | 0 mm | - | - | - |
| 1777563701 | 3.89° C | 48% | 1016.1 hPa | 0 mm | - | - | - |
| 1777563101 | 3.89° C | 49% | 1015.6 hPa | 0 mm | - | - | - |
| 1777562501 | 3.33° C | 52% | 1015.5 hPa | 0 mm | - | - | - |
| 1777561902 | 3.33° C | 50% | 1015.5 hPa | 0 mm | - | - | - |
| 1777561302 | 3.33° C | 49% | 1015.5 hPa | 0 mm | - | - | - |
| 1777560701 | 3.33° C | 48% | 1015.6 hPa | 0 mm | - | - | - |
| 1777560101 | 2.78° C | 46% | 1015.4 hPa | 0 mm | - | - | - |
| 1777559501 | 3.33° C | 46% | 1015.4 hPa | 0 mm | - | - | - |
| 1777558901 | 3.33° C | 47% | 1015.2 hPa | 0 mm | - | - | - |
| 1777558301 | 2.78° C | 48% | 1015.1 hPa | 0 mm | - | - | - |
| 1777557701 | 2.78° C | 51% | 1015.2 hPa | 0 mm | - | - | - |
| 1777557101 | 2.22° C | 51% | 1015 hPa | 0 mm | - | - | - |
| 1777556501 | 1.67° C | 53% | 1014.9 hPa | 0 mm | - | - | - |
| 1777555901 | 1.11° C | 55% | 1014.8 hPa | 0 mm | - | - | - |
| 1777555301 | 1.11° C | 58% | 1014.8 hPa | 0 mm | - | - | - |
| 1777554701 | 0.56° C | 60% | 1014.7 hPa | 0 mm | - | - | - |
* Rain latest hour (hover to see other rain measurements)
** Current wind speed in m/s (hover to see current wind gust speed)